EW7191 Weather Reports


Display with metric or nautical units.
time (UTC)temp
F
wind
direction
speed
MPH
gust
MPH
rain 1hr
in
rain 24hr
in
rain mn
in
humidity
%
barometer
mb
20260905061550 49 269 0.0 0.0 0.00 0.00 0.00 90 1022.8
20260905060047 49 269 0.0 0.0 0.00 0.00 0.00 89 1022.8
20260905054552 50 269 0.0 0.0 0.00 0.00 0.00 89 1022.7
20260905053044 50 269 0.0 0.0 0.00 0.00 0.00 88 1022.6
20260905051543 51 269 0.0 0.0 0.00 0.00 0.00 88 1022.5
20260905050042 51 269 0.0 0.0 0.00 0.00 0.00 86 1022.5
20260905044542 52 269 0.0 0.0 0.00 0.00 0.00 85 1022.5
20260905043040 53 269 0.0 0.0 0.00 0.00 0.00 84 1022.3
20260905041539 54 269 0.0 0.0 0.00 0.00 0.00 81 1022.1
20260905040048 55 269 0.0 0.0 0.00 0.00 0.00 79 1022.1
20260905034536 56 269 0.0 0.0 0.00 0.00 0.00 75 1021.9
20260905033034 58 269 0.0 0.0 0.00 0.00 0.00 72 1021.7
20260905031533 60 269 0.0 0.0 0.00 0.00 0.00 68 1021.5
20260905030032 60 269 0.0 0.0 0.00 0.00 0.00 66 1021.5
20260905024530 61 269 0.0 0.0 0.00 0.00 0.00 67 1021.5
20260905023030 61 269 0.0 0.0 0.00 0.00 0.00 64 1021.4
20260905021530 62 297 0.0 0.0 0.00 0.00 0.00 64 1021.4
20260905020032 62 261 0.0 0.0 0.00 0.00 0.00 63 1021.3
20260905014526 62 263 0.0 0.0 0.00 0.00 0.00 61 1021.2
20260905013027 63 256 0.0 0.0 0.00 0.00 0.00 59 1021.1
20260905011525 64 281 0.0 1.0 0.00 0.00 0.00 58 1021.1
20260905010026 64 237 0.0 1.0 0.00 0.00 0.00 56 1021.0
20260905004521 65 269 0.0 5.0 0.00 0.00 0.00 57 1020.7
20260905003021 64 268 0.0 7.0 0.00 0.00 0.00 57 1020.5
20260905001520 65 255 0.0 3.0 0.00 0.00 0.00 57 1020.5
20260905000019 66 281 0.0 1.0 0.00 0.00 0.00 57 1020.4
20260904234520 67 307 0.0 12.0 0.00 0.00 0.00 53 1020.5
20260904233017 66 167 0.0 0.0 0.00 0.00 0.00 57 1020.4
20260904231514 65 269 0.0 5.0 0.00 0.00 0.00 58 1020.5
20260904230020 65 274 2.0 11.0 0.00 0.00 0.00 56 1020.5
20260904224520 64 264 0.0 4.0 0.00 0.00 0.00 58 1020.4
20260904223011 64 295 0.0 3.0 0.00 0.00 0.00 58 1020.3
20260904221512 64 226 0.0 0.0 0.00 0.00 0.00 59 1020.1
20260904220010 64 250 0.0 0.0 0.00 0.00 0.00 58 1020.2
20260904214517 63 227 0.0 0.0 0.00 0.00 0.00 58 1020.2
20260904213009 63 302 0.0 4.0 0.00 0.00 0.00 59 1020.2
20260904211509 64 280 0.0 0.0 0.00 0.00 0.00 57 1020.0
20260904210008 64 269 0.0 0.0 0.00 0.00 0.00 58 1020.1
20260904204510 63 231 0.0 4.0 0.00 0.00 0.00 60 1020.1
20260904203008 62 260 0.0 0.0 0.00 0.00 0.00 62 1020.0
20260904201506 61 271 0.0 3.0 0.00 0.00 0.00 64 1020.2
20260904200009 61 266 0.0 0.0 0.00 0.00 0.00 66 1020.2
20260904194506 61 294 0.0 6.0 0.00 0.00 0.00 66 1020.2
20260904193007 64 270 0.0 6.0 0.00 0.00 0.00 56 1020.0
20260904191503 64 212 0.0 2.0 0.00 0.00 0.00 60 1020.0
20260904190002 62 284 0.0 3.0 0.00 0.00 0.00 63 1020.2
20260904184502 62 253 0.0 4.0 0.00 0.00 0.00 64 1020.2
20260904183114 62 283 0.0 10.0 0.00 0.00 0.00 64 1020.1
20260904181559 63 278 0.0 1.0 0.00 0.00 0.00 67 1020.1
20260904180057 60 90 0.0 3.0 0.00 0.00 0.00 70 1020.2
20260904174552 59 147 0.0 0.0 0.00 0.00 0.00 73 1020.2
20260904173050 58 262 0.0 2.0 0.00 0.00 0.00 75 1020.3
20260904171547 58 285 0.0 0.0 0.00 0.00 0.00 78 1020.0
20260904170043 56 255 0.0 0.0 0.00 0.00 0.00 82 1019.9
20260904164538 55 118 0.0 0.0 0.00 0.00 0.00 90 1019.7
20260904163035 54 118 0.0 0.0 0.00 0.00 0.00 92 1019.7
20260904161535 54 136 0.0 0.0 0.00 0.00 0.00 92 1019.8
20260904160033 53 314 0.0 0.0 0.00 0.00 0.00 92 1019.7
20260904154531 53 314 0.0 0.0 0.00 0.00 0.00 92 1019.6
20260904153033 53 314 0.0 0.0 0.00 0.00 0.00 92 1019.6
20260904151527 53 314 0.0 0.0 0.00 0.00 0.00 93 1019.5
20260904150027 52 314 0.0 0.0 0.00 0.00 0.00 93 1019.2
20260904144521 52 314 0.0 0.0 0.00 0.00 0.00 92 1019.0
20260904143019 52 314 0.0 0.0 0.00 0.00 0.00 93 1018.8
20260904141518 52 314 0.0 0.0 0.00 0.00 0.00 93 1018.6
20260904140016 52 314 0.0 0.0 0.00 0.00 0.00 92 1018.3
20260904134521 52 314 0.0 0.0 0.00 0.00 0.00 92 1018.3
20260904133014 52 314 0.0 0.0 0.00 0.00 0.00 91 1018.2
20260904131512 52 69 0.0 0.0 0.00 0.00 0.00 90 1018.1
20260904130028 52 69 0.0 0.0 0.00 0.00 0.00 90 1018.1
20260904124508 52 69 0.0 0.0 0.00 0.00 0.00 90 1017.9
20260904123009 52 56 0.0 0.0 0.00 0.00 0.00 91 1017.8
20260904121600 52 56 0.0 0.0 0.00 0.00 0.00 91 1017.8
20260904120108 52 56 0.0 0.0 0.00 0.00 0.00 91 1017.7
20260904114550 52 56 0.0 0.0 0.00 0.00 0.00 91 1017.7
20260904113045 52 56 0.0 0.0 0.00 0.00 0.00 91 1017.7
20260904111541 52 98 0.0 0.0 0.00 0.00 0.00 91 1017.7
20260904110037 52 98 0.0 0.0 0.00 0.00 0.00 91 1017.7
20260904104534 51 98 0.0 0.0 0.00 0.00 0.00 92 1017.7
20260904103034 51 98 0.0 0.0 0.00 0.00 0.00 92 1017.5
20260904101533 51 98 0.0 0.0 0.00 0.00 0.00 91 1017.4
20260904100034 51 98 0.0 0.0 0.00 0.00 0.00 90 1017.4
20260904094531 51 95 0.0 0.0 0.00 0.00 0.00 91 1017.4
20260904093030 51 90 0.0 0.0 0.00 0.00 0.00 92 1017.5
20260904091529 51 90 0.0 0.0 0.00 0.00 0.00 92 1017.5
20260904090031 51 90 0.0 0.0 0.00 0.00 0.00 92 1017.6
20260904084523 50 90 0.0 0.0 0.00 0.00 0.00 92 1017.6
20260904083029 50 90 0.0 0.0 0.00 0.00 0.00 92 1017.7
20260904081520 50 90 0.0 0.0 0.00 0.00 0.00 93 1017.9
20260904080017 49 90 0.0 0.0 0.00 0.00 0.00 93 1017.8
20260904074515 49 90 0.0 0.0 0.00 0.00 0.00 92 1017.7
20260904073015 49 91 0.0 0.0 0.00 0.00 0.00 92 1017.7
20260904071519 49 63 0.0 0.0 0.00 0.00 0.00 92 1017.7
20260904070018 49 64 0.0 0.0 0.00 0.00 0.00 92 1017.8
20260904064510 49 64 0.0 0.0 0.00 0.00 0.00 91 1017.7
20260904063011 49 79 0.0 0.0 0.00 0.00 0.00 91 1017.5